Time,TemperatureF,DewpointF,PressureIn,WindDirection,WindDirectionDegrees,WindSpeedMPH,WindSpeedGustMPH,Humidity,HourlyPrecipIn,Conditions,Clouds,dailyrainin,SoftwareType,DateUTC
2013-05-29 00:04:00,63.5,52.0,29.82,South,180,1.0,2.0,66,0.00,,,0.00,meteohub,2013-05-29 07:04:00,
2013-05-29 00:09:00,63.5,52.0,29.82,South,180,2.0,2.0,66,0.00,,,0.00,meteohub,2013-05-29 07:09:00,
2013-05-29 00:14:00,63.3,51.8,29.82,NW,315,1.0,2.0,66,0.00,,,0.00,meteohub,2013-05-29 07:14:00,
2013-05-29 00:19:00,63.3,51.8,29.82,SW,225,2.0,3.0,66,0.00,,,0.00,meteohub,2013-05-29 07:19:00,
2013-05-29 00:24:00,63.1,52.0,29.83,West,270,1.0,3.0,67,0.00,,,0.00,meteohub,2013-05-29 07:24:00,
2013-05-29 00:29:00,63.1,52.3,29.83,SW,225,3.0,3.0,68,0.00,,,0.00,meteohub,2013-05-29 07:29:00,
2013-05-29 00:35:00,63.0,52.7,29.83,NE,45,2.0,3.0,69,0.00,,,0.00,meteohub,2013-05-29 07:35:00,
2013-05-29 00:40:00,63.0,52.7,29.82,SW,225,2.0,3.0,69,0.00,,,0.00,meteohub,2013-05-29 07:40:00,
2013-05-29 00:45:00,62.8,52.5,29.81,NW,315,1.0,3.0,69,0.00,,,0.00,meteohub,2013-05-29 07:45:00,
2013-05-29 00:50:00,62.8,52.9,29.82,North,0,0.0,3.0,70,0.00,,,0.00,meteohub,2013-05-29 07:50:00,
2013-05-29 00:55:00,62.6,52.7,29.82,SW,225,0.0,2.0,70,0.00,,,0.00,meteohub,2013-05-29 07:55:00,
2013-05-29 01:00:00,62.4,52.5,29.81,West,270,0.0,2.0,70,0.00,,,0.00,meteohub,2013-05-29 08:00:00,
2013-05-29 01:05:00,62.4,52.5,29.81,West,270,0.0,2.0,70,0.00,,,0.00,meteohub,2013-05-29 08:05:00,
2013-05-29 01:10:00,62.1,52.9,29.81,NE,45,2.0,2.0,72,0.00,,,0.00,meteohub,2013-05-29 08:10:00,
2013-05-29 01:15:00,61.9,53.1,29.82,South,180,2.0,2.0,73,0.00,,,0.00,meteohub,2013-05-29 08:15:00,
2013-05-29 01:20:00,61.7,53.2,29.81,West,270,1.0,2.0,74,0.00,,,0.00,meteohub,2013-05-29 08:20:00,
2013-05-29 01:25:00,61.7,53.8,29.81,SE,135,2.0,2.0,75,0.00,,,0.00,meteohub,2013-05-29 08:25:00,
2013-05-29 01:30:00,61.7,53.8,29.81,NE,45,0.0,2.0,75,0.00,,,0.00,meteohub,2013-05-29 08:30:00,
2013-05-29 01:36:00,61.5,54.0,29.81,SW,225,2.0,2.0,76,0.00,,,0.00,meteohub,2013-05-29 08:36:00,
2013-05-29 01:41:00,61.3,53.4,29.81,East,90,1.0,3.0,75,0.00,,,0.00,meteohub,2013-05-29 08:41:00,
2013-05-29 01:46:00,61.2,53.2,29.80,West,270,2.0,3.0,75,0.00,,,0.00,meteohub,2013-05-29 08:46:00,
2013-05-29 01:51:00,61.0,53.1,29.81,West,270,0.0,3.0,75,0.00,,,0.00,meteohub,2013-05-29 08:51:00,
2013-05-29 01:56:00,60.8,53.2,29.81,SW,225,2.0,2.0,76,0.00,,,0.00,meteohub,2013-05-29 08:56:00,
2013-05-29 02:01:00,60.8,53.2,29.81,West,270,2.0,2.0,76,0.00,,,0.00,meteohub,2013-05-29 09:01:00,
2013-05-29 02:06:00,60.8,52.9,29.81,NW,315,2.0,2.0,75,0.00,,,0.00,meteohub,2013-05-29 09:06:00,
2013-05-29 02:11:00,60.8,52.9,29.81,South,180,1.0,3.0,75,0.00,,,0.00,meteohub,2013-05-29 09:11:00,
2013-05-29 02:16:00,60.8,52.9,29.80,NE,45,0.0,3.0,75,0.00,,,0.00,meteohub,2013-05-29 09:16:00,
2013-05-29 02:21:00,60.8,52.9,29.81,NE,45,0.0,3.0,75,0.00,,,0.00,meteohub,2013-05-29 09:21:00,
2013-05-29 02:26:00,61.0,52.7,29.81,South,180,1.0,2.0,74,0.00,,,0.00,meteohub,2013-05-29 09:26:00,
2013-05-29 02:31:00,61.2,52.9,29.81,NE,45,1.0,2.0,74,0.00,,,0.00,meteohub,2013-05-29 09:31:00,
2013-05-29 02:37:00,61.3,52.7,29.81,North,0,0.0,2.0,73,0.00,,,0.00,meteohub,2013-05-29 09:37:00,
2013-05-29 02:42:00,61.5,53.2,29.81,North,0,0.0,2.0,74,0.00,,,0.00,meteohub,2013-05-29 09:42:00,
2013-05-29 02:47:00,61.5,53.2,29.81,SW,225,2.0,2.0,74,0.00,,,0.00,meteohub,2013-05-29 09:47:00,
2013-05-29 02:52:00,61.7,52.9,29.81,NE,45,2.0,2.0,73,0.00,,,0.00,meteohub,2013-05-29 09:52:00,
2013-05-29 02:57:00,62.1,53.2,29.81,North,0,2.0,2.0,73,0.00,,,0.00,meteohub,2013-05-29 09:57:00,
2013-05-29 03:02:00,62.1,52.9,29.81,SE,135,1.0,2.0,72,0.00,,,0.00,meteohub,2013-05-29 10:02:00,
2013-05-29 03:07:00,62.1,52.9,29.81,SE,135,1.0,2.0,72,0.00,,,0.00,meteohub,2013-05-29 10:07:00,
2013-05-29 03:12:00,62.4,52.9,29.81,SW,225,1.0,2.0,71,0.00,,,0.00,meteohub,2013-05-29 10:12:00,
2013-05-29 03:17:00,62.6,52.7,29.81,SW,225,0.0,2.0,70,0.00,,,0.00,meteohub,2013-05-29 10:17:00,
2013-05-29 03:22:00,62.8,52.9,29.81,West,270,0.0,2.0,70,0.00,,,0.00,meteohub,2013-05-29 10:22:00,
2013-05-29 03:27:00,62.8,53.2,29.81,East,90,0.0,2.0,71,0.00,,,0.00,meteohub,2013-05-29 10:27:00,
2013-05-29 03:32:00,63.0,53.1,29.81,NW,315,2.0,2.0,70,0.00,,,0.00,meteohub,2013-05-29 10:32:00,
2013-05-29 03:37:00,63.0,52.7,29.81,SE,135,1.0,2.0,69,0.00,,,0.00,meteohub,2013-05-29 10:37:00,
2013-05-29 03:42:00,63.1,52.9,29.81,West,270,1.0,2.0,69,0.00,,,0.00,meteohub,2013-05-29 10:42:00,
2013-05-29 03:47:00,63.1,52.9,29.81,WNW,293,1.0,2.0,69,0.00,,,0.00,meteohub,2013-05-29 10:47:00,
2013-05-29 03:52:00,63.1,52.9,29.81,West,270,2.0,2.0,69,0.00,,,0.00,meteohub,2013-05-29 10:52:00,
2013-05-29 03:57:00,63.0,52.7,29.81,SW,225,2.0,2.0,69,0.00,,,0.00,meteohub,2013-05-29 10:57:00,
2013-05-29 04:02:00,62.8,52.0,29.81,South,180,2.0,2.0,68,0.00,,,0.00,meteohub,2013-05-29 11:02:00,
2013-05-29 04:07:00,62.8,52.0,29.81,South,180,2.0,3.0,68,0.00,,,0.00,meteohub,2013-05-29 11:07:00,
2013-05-29 04:12:00,62.2,52.0,29.82,North,0,3.0,3.0,69,0.00,,,0.00,meteohub,2013-05-29 11:12:00,
2013-05-29 04:17:00,62.1,51.8,29.82,NE,45,2.0,3.0,69,0.00,,,0.00,meteohub,2013-05-29 11:17:00,
2013-05-29 04:22:00,62.1,51.8,29.81,SW,225,1.0,3.0,69,0.00,,,0.00,meteohub,2013-05-29 11:22:00,
2013-05-29 04:27:00,62.1,51.8,29.81,West,270,2.0,3.0,69,0.00,,,0.00,meteohub,2013-05-29 11:27:00,
2013-05-29 04:32:00,62.1,51.8,29.81,North,0,2.0,2.0,69,0.00,,,0.00,meteohub,2013-05-29 11:32:00,
2013-05-29 04:37:00,62.2,52.0,29.81,NW,315,0.0,2.0,69,0.00,,,0.00,meteohub,2013-05-29 11:37:00,
2013-05-29 04:42:00,62.2,52.0,29.81,NW,315,0.0,2.0,69,0.00,,,0.00,meteohub,2013-05-29 11:42:00,
2013-05-29 04:47:00,62.2,52.0,29.81,SW,225,2.0,2.0,69,0.00,,,0.00,meteohub,2013-05-29 11:47:00,
2013-05-29 04:52:00,62.1,51.8,29.81,North,0,1.0,2.0,69,0.00,,,0.00,meteohub,2013-05-29 11:52:00,
2013-05-29 04:57:00,62.1,51.8,29.82,West,270,2.0,2.0,69,0.00,,,0.00,meteohub,2013-05-29 11:57:00,
2013-05-29 05:02:00,62.1,52.2,29.81,South,180,1.0,2.0,70,0.00,,,0.00,meteohub,2013-05-29 12:02:00,
2013-05-29 05:07:00,61.9,52.0,29.81,SW,225,1.0,2.0,70,0.00,,,0.00,meteohub,2013-05-29 12:07:00,
2013-05-29 05:12:00,61.7,51.8,29.81,North,0,2.0,2.0,70,0.00,,,0.00,meteohub,2013-05-29 12:12:00,
2013-05-29 05:17:00,61.5,51.6,29.81,North,0,2.0,2.0,70,0.00,,,0.00,meteohub,2013-05-29 12:17:00,
2013-05-29 05:22:00,61.5,52.0,29.81,West,270,0.0,2.0,71,0.00,,,0.00,meteohub,2013-05-29 12:22:00,
2013-05-29 05:27:00,61.5,52.0,29.81,North,0,1.0,2.0,71,0.00,,,0.00,meteohub,2013-05-29 12:27:00,
2013-05-29 05:32:00,61.5,52.0,29.81,North,0,2.0,2.0,71,0.00,,,0.00,meteohub,2013-05-29 12:32:00,
2013-05-29 05:37:00,61.5,52.3,29.81,North,0,1.0,2.0,72,0.00,,,0.00,meteohub,2013-05-29 12:37:00,
2013-05-29 05:42:00,61.7,52.5,29.81,SE,135,2.0,2.0,72,0.00,,,0.00,meteohub,2013-05-29 12:42:00,
2013-05-29 05:47:00,61.9,52.7,29.81,NE,45,2.0,3.0,72,0.00,,,0.00,meteohub,2013-05-29 12:47:00,
2013-05-29 05:52:00,62.2,53.1,29.81,North,0,1.0,3.0,72,0.00,,,0.00,meteohub,2013-05-29 12:52:00,
2013-05-29 05:57:00,62.6,53.4,29.81,NE,45,2.0,3.0,72,0.00,,,0.00,meteohub,2013-05-29 12:57:00,
2013-05-29 06:02:00,63.0,53.4,29.81,NE,45,2.0,3.0,71,0.00,,,0.00,meteohub,2013-05-29 13:02:00,
2013-05-29 06:07:00,63.1,53.2,29.81,SW,225,1.0,3.0,70,0.00,,,0.00,meteohub,2013-05-29 13:07:00,
2013-05-29 06:12:00,62.8,52.5,29.82,SE,135,1.0,4.0,69,0.00,,,0.00,meteohub,2013-05-29 13:12:00,
2013-05-29 06:17:00,62.2,51.6,29.82,SW,225,0.0,4.0,68,0.00,,,0.00,meteohub,2013-05-29 13:17:00,
2013-05-29 06:22:00,61.3,51.1,29.83,NW,315,2.0,4.0,69,0.00,,,0.00,meteohub,2013-05-29 13:22:00,
2013-05-29 06:27:00,60.8,50.5,29.83,South,180,2.0,2.0,69,0.00,,,0.00,meteohub,2013-05-29 13:27:00,
2013-05-29 06:32:00,60.6,50.7,29.83,North,0,2.0,2.0,70,0.00,,,0.00,meteohub,2013-05-29 13:32:00,
2013-05-29 06:37:00,60.4,51.1,29.83,SE,135,3.0,3.0,71,0.00,,,0.00,meteohub,2013-05-29 13:37:00,
2013-05-29 06:42:00,60.3,50.9,29.83,NW,315,1.0,3.0,71,0.00,,,0.00,meteohub,2013-05-29 13:42:00,
2013-05-29 06:47:00,60.3,50.9,29.83,NE,45,1.0,3.0,71,0.00,,,0.00,meteohub,2013-05-29 13:47:00,
2013-05-29 06:52:00,60.3,51.3,29.84,East,90,2.0,3.0,72,0.00,,,0.00,meteohub,2013-05-29 13:52:00,
2013-05-29 06:57:00,60.3,51.3,29.84,SW,225,0.0,2.0,72,0.00,,,0.00,meteohub,2013-05-29 13:57:00,
2013-05-29 07:02:00,60.4,51.4,29.84,SW,225,0.0,2.0,72,0.00,,,0.00,meteohub,2013-05-29 14:02:00,
2013-05-29 07:07:00,60.8,52.2,29.85,South,180,1.0,2.0,73,0.00,,,0.00,meteohub,2013-05-29 14:07:00,
2013-05-29 07:12:00,61.2,52.5,29.84,NE,45,2.0,2.0,73,0.00,,,0.00,meteohub,2013-05-29 14:12:00,
2013-05-29 07:17:00,61.9,53.1,29.85,SW,225,6.0,6.0,73,0.00,,,0.00,meteohub,2013-05-29 14:17:00,
2013-05-29 07:22:00,62.8,53.2,29.85,NW,315,4.0,6.0,71,0.00,,,0.00,meteohub,2013-05-29 14:22:00,
2013-05-29 07:27:00,63.7,53.2,29.85,NW,315,4.0,6.0,69,0.00,,,0.00,meteohub,2013-05-29 14:27:00,
2013-05-29 07:32:00,64.0,53.6,29.85,NE,45,2.0,6.0,69,0.00,,,0.00,meteohub,2013-05-29 14:32:00,
2013-05-29 07:37:00,63.9,53.4,29.85,NW,315,2.0,4.0,69,0.00,,,0.00,meteohub,2013-05-29 14:37:00,
2013-05-29 07:43:00,63.9,53.4,29.85,South,180,2.0,4.0,69,0.00,,,0.00,meteohub,2013-05-29 14:43:00,
2013-05-29 07:48:00,64.0,53.2,29.85,SW,225,3.0,4.0,68,0.00,,,0.00,meteohub,2013-05-29 14:48:00,
2013-05-29 07:53:00,64.4,53.6,29.85,South,180,2.0,3.0,68,0.00,,,0.00,meteohub,2013-05-29 14:53:00,
2013-05-29 07:58:00,64.4,53.6,29.85,NE,45,2.0,3.0,68,0.00,,,0.00,meteohub,2013-05-29 14:58:00,
2013-05-29 08:03:00,64.6,53.8,29.85,NE,45,2.0,3.0,68,0.00,,,0.00,meteohub,2013-05-29 15:03:00,
2013-05-29 08:08:00,64.9,54.1,29.85,NE,45,3.0,3.0,68,0.00,,,0.00,meteohub,2013-05-29 15:08:00,
2013-05-29 08:13:00,65.5,54.3,29.86,NE,45,4.0,4.0,67,0.00,,,0.00,meteohub,2013-05-29 15:13:00,
2013-05-29 08:18:00,66.2,54.1,29.86,West,270,5.0,5.0,65,0.00,,,0.00,meteohub,2013-05-29 15:18:00,
2013-05-29 08:23:00,67.1,54.5,29.86,NE,45,4.0,5.0,64,0.00,,,0.00,meteohub,2013-05-29 15:23:00,
2013-05-29 08:28:00,68.0,54.9,29.86,NE,45,4.0,5.0,63,0.00,,,0.00,meteohub,2013-05-29 15:28:00,
2013-05-29 08:33:00,68.5,54.1,29.85,NE,45,4.0,6.0,60,0.00,,,0.00,meteohub,2013-05-29 15:33:00,
2013-05-29 08:38:00,68.9,54.5,29.86,West,270,2.0,6.0,60,0.00,,,0.00,meteohub,2013-05-29 15:38:00,
2013-05-29 08:43:00,69.4,54.9,29.86,NE,45,2.0,6.0,60,0.00,,,0.00,meteohub,2013-05-29 15:43:00,
2013-05-29 08:48:00,70.3,54.9,29.86,North,0,4.0,6.0,58,0.00,,,0.00,meteohub,2013-05-29 15:48:00,
2013-05-29 08:54:00,70.9,55.8,29.86,South,180,2.0,5.0,59,0.00,,,0.00,meteohub,2013-05-29 15:54:00,
2013-05-29 08:59:00,71.4,55.9,29.86,North,0,4.0,4.0,58,0.00,,,0.00,meteohub,2013-05-29 15:59:00,
2013-05-29 09:04:00,71.8,55.8,29.86,SW,225,2.0,4.0,57,0.00,,,0.00,meteohub,2013-05-29 16:04:00,
2013-05-29 09:09:00,72.1,56.1,29.86,SE,135,2.0,4.0,57,0.00,,,0.00,meteohub,2013-05-29 16:09:00,
2013-05-29 09:14:00,72.7,56.1,29.86,NE,45,3.0,4.0,56,0.00,,,0.00,meteohub,2013-05-29 16:14:00,
2013-05-29 09:19:00,73.2,56.7,29.86,NE,45,2.0,4.0,56,0.00,,,0.00,meteohub,2013-05-29 16:19:00,
2013-05-29 09:24:00,73.9,54.7,29.86,North,0,3.0,3.0,51,0.00,,,0.00,meteohub,2013-05-29 16:24:00,
2013-05-29 09:29:00,74.1,55.4,29.86,East,90,2.0,4.0,52,0.00,,,0.00,meteohub,2013-05-29 16:29:00,
2013-05-29 09:34:00,74.3,56.1,29.86,NE,45,2.0,4.0,53,0.00,,,0.00,meteohub,2013-05-29 16:34:00,
2013-05-29 09:39:00,74.8,56.1,29.86,SW,225,2.0,4.0,52,0.00,,,0.00,meteohub,2013-05-29 16:39:00,
2013-05-29 09:44:00,75.2,55.8,29.86,NE,45,2.0,3.0,51,0.00,,,0.00,meteohub,2013-05-29 16:44:00,
2013-05-29 09:49:00,75.2,55.2,29.86,SW,225,4.0,4.0,50,0.00,,,0.00,meteohub,2013-05-29 16:49:00,
2013-05-29 09:54:00,75.0,55.0,29.86,East,90,2.0,3.0,50,0.00,,,0.00,meteohub,2013-05-29 16:54:00,
2013-05-29 09:59:00,75.0,54.5,29.86,North,0,3.0,4.0,49,0.00,,,0.00,meteohub,2013-05-29 16:59:00,
2013-05-29 10:04:00,75.0,54.5,29.86,SW,225,4.0,4.0,49,0.00,,,0.00,meteohub,2013-05-29 17:04:00,
2013-05-29 10:10:00,75.7,55.2,29.85,SE,135,2.0,4.0,49,0.00,,,0.00,meteohub,2013-05-29 17:10:00,
2013-05-29 10:15:00,76.3,55.2,29.86,West,270,3.0,4.0,48,0.00,,,0.00,meteohub,2013-05-29 17:15:00,
2013-05-29 10:20:00,76.3,54.5,29.85,South,180,2.0,4.0,47,0.00,,,0.00,meteohub,2013-05-29 17:20:00,
2013-05-29 10:25:00,76.6,54.9,29.85,SW,225,2.0,4.0,47,0.00,,,0.00,meteohub,2013-05-29 17:25:00,
2013-05-29 10:30:00,77.2,54.9,29.85,SE,135,2.0,4.0,46,0.00,,,0.00,meteohub,2013-05-29 17:30:00,
2013-05-29 10:35:00,77.7,54.1,29.85,NE,45,5.0,5.0,44,0.00,,,0.00,meteohub,2013-05-29 17:35:00,
2013-05-29 10:40:00,77.9,53.6,29.85,SE,135,4.0,5.0,43,0.00,,,0.00,meteohub,2013-05-29 17:40:00,
2013-05-29 10:45:00,78.3,54.0,29.85,North,0,4.0,5.0,43,0.00,,,0.00,meteohub,2013-05-29 17:45:00,
2013-05-29 10:50:00,78.6,54.3,29.84,South,180,2.0,6.0,43,0.00,,,0.00,meteohub,2013-05-29 17:50:00,
2013-05-29 10:55:00,79.2,54.1,29.85,NW,315,1.0,4.0,42,0.00,,,0.00,meteohub,2013-05-29 17:55:00,
2013-05-29 11:00:00,79.9,54.1,29.85,West,270,4.0,4.0,41,0.00,,,0.00,meteohub,2013-05-29 18:00:00,
2013-05-29 11:05:00,80.1,53.6,29.84,South,180,2.0,4.0,40,0.00,,,0.00,meteohub,2013-05-29 18:05:00,
2013-05-29 11:10:00,80.6,52.7,29.84,SW,225,3.0,4.0,38,0.00,,,0.00,meteohub,2013-05-29 18:10:00,
2013-05-29 11:15:00,80.4,53.2,29.84,North,0,2.0,4.0,39,0.00,,,0.00,meteohub,2013-05-29 18:15:00,
2013-05-29 11:20:00,81.0,52.2,29.84,SW,225,2.0,4.0,37,0.00,,,0.00,meteohub,2013-05-29 18:20:00,
2013-05-29 11:26:00,81.0,51.4,29.84,North,0,3.0,4.0,36,0.00,,,0.00,meteohub,2013-05-29 18:26:00,
2013-05-29 11:31:00,81.0,51.4,29.85,South,180,2.0,4.0,36,0.00,,,0.00,meteohub,2013-05-29 18:31:00,
2013-05-29 11:36:00,81.1,51.6,29.84,NE,45,2.0,4.0,36,0.00,,,0.00,meteohub,2013-05-29 18:36:00,
2013-05-29 11:41:00,81.3,51.8,29.84,SW,225,2.0,4.0,36,0.00,,,0.00,meteohub,2013-05-29 18:41:00,
2013-05-29 11:46:00,81.9,53.1,29.84,East,90,2.0,3.0,37,0.00,,,0.00,meteohub,2013-05-29 18:46:00,
2013-05-29 11:51:00,82.9,53.2,29.84,NW,315,2.0,3.0,36,0.00,,,0.00,meteohub,2013-05-29 18:51:00,
2013-05-29 11:56:00,83.7,52.3,29.84,NE,45,4.0,4.0,34,0.00,,,0.00,meteohub,2013-05-29 18:56:00,
2013-05-29 12:01:00,83.8,53.2,29.84,North,0,2.0,4.0,35,0.00,,,0.00,meteohub,2013-05-29 19:01:00,
2013-05-29 12:06:00,83.3,52.0,29.84,NE,45,3.0,4.0,34,0.00,,,0.00,meteohub,2013-05-29 19:06:00,
2013-05-29 12:11:00,82.9,53.2,29.84,NE,45,2.0,4.0,36,0.00,,,0.00,meteohub,2013-05-29 19:11:00,
2013-05-29 12:16:00,83.3,53.6,29.84,SE,135,2.0,4.0,36,0.00,,,0.00,meteohub,2013-05-29 19:16:00,
2013-05-29 12:21:00,83.8,52.5,29.84,SW,225,3.0,4.0,34,0.00,,,0.00,meteohub,2013-05-29 19:21:00,
2013-05-29 12:27:00,83.7,51.4,29.84,SW,225,3.0,4.0,33,0.00,,,0.00,meteohub,2013-05-29 19:27:00,
2013-05-29 12:32:00,83.7,52.3,29.85,West,270,4.0,4.0,34,0.00,,,0.00,meteohub,2013-05-29 19:32:00,
2013-05-29 12:37:00,84.0,54.1,29.85,West,270,3.0,5.0,36,0.00,,,0.00,meteohub,2013-05-29 19:37:00,
2013-05-29 12:42:00,84.0,54.1,29.85,West,270,2.0,5.0,36,0.00,,,0.00,meteohub,2013-05-29 19:42:00,
2013-05-29 12:47:00,83.8,54.0,29.84,SE,135,2.0,4.0,36,0.00,,,0.00,meteohub,2013-05-29 19:47:00,
2013-05-29 12:52:00,84.4,54.5,29.84,SW,225,2.0,4.0,36,0.00,,,0.00,meteohub,2013-05-29 19:52:00,
2013-05-29 12:57:00,84.2,54.3,29.84,SW,225,2.0,4.0,36,0.00,,,0.00,meteohub,2013-05-29 19:57:00,
2013-05-29 13:02:00,83.5,53.8,29.84,South,180,2.0,4.0,36,0.00,,,0.00,meteohub,2013-05-29 20:02:00,
2013-05-29 13:07:00,84.2,55.8,29.84,NE,45,2.0,3.0,38,0.00,,,0.00,meteohub,2013-05-29 20:07:00,
2013-05-29 13:12:00,85.5,55.4,29.84,SW,225,2.0,3.0,36,0.00,,,0.00,meteohub,2013-05-29 20:12:00,
2013-05-29 13:17:00,86.4,55.4,29.83,West,270,3.0,3.0,35,0.00,,,0.00,meteohub,2013-05-29 20:17:00,
2013-05-29 13:22:00,86.4,55.4,29.84,West,270,1.0,3.0,35,0.00,,,0.00,meteohub,2013-05-29 20:22:00,
2013-05-29 13:27:00,86.5,54.9,29.83,East,90,3.0,4.0,34,0.00,,,0.00,meteohub,2013-05-29 20:27:00,
2013-05-29 13:32:00,86.9,55.2,29.83,SW,225,3.0,4.0,34,0.00,,,0.00,meteohub,2013-05-29 20:32:00,
2013-05-29 13:37:00,87.1,55.2,29.84,ESE,113,2.0,4.0,34,0.00,,,0.00,meteohub,2013-05-29 20:37:00,
2013-05-29 13:42:00,87.6,55.0,29.83,NE,45,3.0,3.0,33,0.00,,,0.00,meteohub,2013-05-29 20:42:00,
2013-05-29 13:47:00,87.6,54.1,29.83,North,0,2.0,3.0,32,0.00,,,0.00,meteohub,2013-05-29 20:47:00,
2013-05-29 13:52:00,87.1,54.5,29.83,NE,45,2.0,4.0,33,0.00,,,0.00,meteohub,2013-05-29 20:52:00,
2013-05-29 13:57:00,87.1,53.6,29.83,North,0,2.0,4.0,32,0.00,,,0.00,meteohub,2013-05-29 20:57:00,
2013-05-29 14:02:00,87.1,52.7,29.83,East,90,2.0,4.0,31,0.00,,,0.00,meteohub,2013-05-29 21:02:00,
2013-05-29 14:07:00,86.9,53.4,29.83,NE,45,1.0,3.0,32,0.00,,,0.00,meteohub,2013-05-29 21:07:00,
2013-05-29 14:12:00,86.4,53.8,29.83,SW,225,2.0,4.0,33,0.00,,,0.00,meteohub,2013-05-29 21:12:00,
2013-05-29 14:17:00,86.7,53.4,29.83,West,270,2.0,4.0,32,0.00,,,0.00,meteohub,2013-05-29 21:17:00,
2013-05-29 14:22:00,87.1,53.6,29.83,West,270,4.0,4.0,32,0.00,,,0.00,meteohub,2013-05-29 21:22:00,
2013-05-29 14:27:00,87.4,54.9,29.83,North,0,2.0,4.0,33,0.00,,,0.00,meteohub,2013-05-29 21:27:00,
2013-05-29 14:32:00,87.8,55.0,29.83,NE,45,3.0,4.0,33,0.00,,,0.00,meteohub,2013-05-29 21:32:00,
2013-05-29 14:37:00,88.2,56.3,29.83,WNW,293,2.0,4.0,34,0.00,,,0.00,meteohub,2013-05-29 21:37:00,
2013-05-29 14:42:00,88.5,54.9,29.83,SW,225,4.0,4.0,32,0.00,,,0.00,meteohub,2013-05-29 21:42:00,
2013-05-29 14:47:00,88.7,55.0,29.83,South,180,4.0,4.0,32,0.00,,,0.00,meteohub,2013-05-29 21:47:00,
2013-05-29 14:52:00,88.5,54.9,29.83,South,180,3.0,4.0,32,0.00,,,0.00,meteohub,2013-05-29 21:52:00,
2013-05-29 14:57:00,88.0,54.5,29.83,SW,225,2.0,4.0,32,0.00,,,0.00,meteohub,2013-05-29 21:57:00,
2013-05-29 15:02:00,88.0,55.2,29.82,North,0,4.0,4.0,33,0.00,,,0.00,meteohub,2013-05-29 22:02:00,
2013-05-29 15:07:00,88.0,55.2,29.82,South,180,2.0,4.0,33,0.00,,,0.00,meteohub,2013-05-29 22:07:00,
2013-05-29 15:12:00,88.5,54.9,29.82,SW,225,4.0,4.0,32,0.00,,,0.00,meteohub,2013-05-29 22:12:00,
2013-05-29 15:17:00,89.2,55.6,29.82,North,0,2.0,4.0,32,0.00,,,0.00,meteohub,2013-05-29 22:17:00,
2013-05-29 15:22:00,89.4,54.9,29.82,East,90,3.0,4.0,31,0.00,,,0.00,meteohub,2013-05-29 22:22:00,
2013-05-29 15:27:00,89.6,55.0,29.82,East,90,3.0,4.0,31,0.00,,,0.00,meteohub,2013-05-29 22:27:00,
2013-05-29 15:32:00,89.6,54.1,29.81,NE,45,2.0,4.0,30,0.00,,,0.00,meteohub,2013-05-29 22:32:00,
2013-05-29 15:37:00,89.2,53.8,29.81,NE,45,2.0,4.0,30,0.00,,,0.00,meteohub,2013-05-29 22:37:00,
2013-05-29 15:42:00,89.1,54.5,29.81,South,180,3.0,4.0,31,0.00,,,0.00,meteohub,2013-05-29 22:42:00,
2013-05-29 15:47:00,88.7,54.1,29.81,West,270,3.0,4.0,31,0.00,,,0.00,meteohub,2013-05-29 22:47:00,
2013-05-29 15:52:00,88.3,54.7,29.81,NW,315,2.0,4.0,32,0.00,,,0.00,meteohub,2013-05-29 22:52:00,
2013-05-29 15:57:00,88.5,54.0,29.81,SW,225,4.0,4.0,31,0.00,,,0.00,meteohub,2013-05-29 22:57:00,
2013-05-29 16:02:00,88.5,54.9,29.81,NW,315,3.0,4.0,32,0.00,,,0.00,meteohub,2013-05-29 23:02:00,
2013-05-29 16:07:00,88.5,54.0,29.81,West,270,2.0,4.0,31,0.00,,,0.00,meteohub,2013-05-29 23:07:00,
2013-05-29 16:12:00,88.3,55.6,29.81,NE,45,2.0,4.0,33,0.00,,,0.00,meteohub,2013-05-29 23:12:00,
2013-05-29 16:17:00,88.2,55.4,29.80,SW,225,3.0,4.0,33,0.00,,,0.00,meteohub,2013-05-29 23:17:00,
2013-05-29 16:22:00,88.0,55.2,29.80,South,180,2.0,4.0,33,0.00,,,0.00,meteohub,2013-05-29 23:22:00,
2013-05-29 16:27:00,88.0,55.2,29.80,NE,45,2.0,4.0,33,0.00,,,0.00,meteohub,2013-05-29 23:27:00,
2013-05-29 16:32:00,87.8,54.3,29.80,NW,315,2.0,4.0,32,0.00,,,0.00,meteohub,2013-05-29 23:32:00,
2013-05-29 16:37:00,87.8,55.0,29.80,West,270,2.0,3.0,33,0.00,,,0.00,meteohub,2013-05-29 23:37:00,
2013-05-29 16:42:00,87.3,53.8,29.80,NW,315,2.0,3.0,32,0.00,,,0.00,meteohub,2013-05-29 23:42:00,
2013-05-29 16:47:00,86.9,54.3,29.80,NW,315,2.0,7.0,33,0.00,,,0.00,meteohub,2013-05-29 23:47:00,
2013-05-29 16:52:00,86.5,54.9,29.80,North,0,2.0,7.0,34,0.00,,,0.00,meteohub,2013-05-29 23:52:00,
2013-05-29 16:57:00,86.4,54.7,29.80,South,180,2.0,7.0,34,0.00,,,0.00,meteohub,2013-05-29 23:57:00,
2013-05-29 17:02:00,86.4,54.7,29.80,SW,225,3.0,4.0,34,0.00,,,0.00,meteohub,2013-05-30 00:02:00,
2013-05-29 17:07:00,86.0,54.3,29.80,NE,45,2.0,4.0,34,0.00,,,0.00,meteohub,2013-05-30 00:07:00,
2013-05-29 17:12:00,85.5,54.7,29.79,NE,45,2.0,4.0,35,0.00,,,0.00,meteohub,2013-05-30 00:12:00,
2013-05-29 17:17:00,84.9,54.1,29.80,West,270,3.0,4.0,35,0.00,,,0.00,meteohub,2013-05-30 00:17:00,
2013-05-29 17:22:00,84.6,54.0,29.80,West,270,3.0,4.0,35,0.00,,,0.00,meteohub,2013-05-30 00:22:00,
2013-05-29 17:27:00,84.4,54.5,29.79,West,270,2.0,4.0,36,0.00,,,0.00,meteohub,2013-05-30 00:27:00,
2013-05-29 17:32:00,84.2,54.3,29.80,SW,225,2.0,4.0,36,0.00,,,0.00,meteohub,2013-05-30 00:32:00,
2013-05-29 17:37:00,84.0,54.1,29.79,SW,225,2.0,4.0,36,0.00,,,0.00,meteohub,2013-05-30 00:37:00,
2013-05-29 17:42:00,83.7,54.0,29.80,West,270,2.0,4.0,36,0.00,,,0.00,meteohub,2013-05-30 00:42:00,
2013-05-29 17:47:00,83.3,53.6,29.79,South,180,2.0,4.0,36,0.00,,,0.00,meteohub,2013-05-30 00:47:00,
2013-05-29 17:52:00,83.1,54.1,29.79,East,90,2.0,4.0,37,0.00,,,0.00,meteohub,2013-05-30 00:52:00,
2013-05-29 17:57:00,83.1,54.1,29.79,SE,135,1.0,4.0,37,0.00,,,0.00,meteohub,2013-05-30 00:57:00,
2013-05-29 18:02:00,82.9,54.0,29.79,SW,225,2.0,3.0,37,0.00,,,0.00,meteohub,2013-05-30 01:02:00,
2013-05-29 18:07:00,82.6,53.6,29.79,SE,135,2.0,4.0,37,0.00,,,0.00,meteohub,2013-05-30 01:07:00,
2013-05-29 18:12:00,82.4,54.3,29.79,SW,225,2.0,4.0,38,0.00,,,0.00,meteohub,2013-05-30 01:12:00,
2013-05-29 18:17:00,82.2,54.1,29.79,SW,225,2.0,4.0,38,0.00,,,0.00,meteohub,2013-05-30 01:17:00,
2013-05-29 18:22:00,81.9,53.8,29.79,NE,45,2.0,4.0,38,0.00,,,0.00,meteohub,2013-05-30 01:22:00,
2013-05-29 18:27:00,81.7,53.6,29.79,South,180,2.0,4.0,38,0.00,,,0.00,meteohub,2013-05-30 01:27:00,
2013-05-29 18:32:00,81.7,54.3,29.79,East,90,1.0,4.0,39,0.00,,,0.00,meteohub,2013-05-30 01:32:00,
2013-05-29 18:37:00,81.1,53.8,29.79,West,270,2.0,4.0,39,0.00,,,0.00,meteohub,2013-05-30 01:37:00,
2013-05-29 18:42:00,80.8,53.6,29.80,SW,225,2.0,4.0,39,0.00,,,0.00,meteohub,2013-05-30 01:42:00,
2013-05-29 18:47:00,80.4,53.2,29.79,North,0,1.0,4.0,39,0.00,,,0.00,meteohub,2013-05-30 01:47:00,
2013-05-29 18:52:00,80.1,52.9,29.79,East,90,2.0,4.0,39,0.00,,,0.00,meteohub,2013-05-30 01:52:00,
2013-05-29 18:57:00,79.7,53.2,29.79,SW,225,2.0,4.0,40,0.00,,,0.00,meteohub,2013-05-30 01:57:00,
2013-05-29 19:02:00,79.5,53.8,29.79,SE,135,1.0,2.0,41,0.00,,,0.00,meteohub,2013-05-30 02:02:00,
2013-05-29 19:07:00,79.5,54.5,29.79,South,180,1.0,2.0,42,0.00,,,0.00,meteohub,2013-05-30 02:07:00,
2013-05-29 19:12:00,79.3,54.3,29.79,South,180,2.0,2.0,42,0.00,,,0.00,meteohub,2013-05-30 02:12:00,
2013-05-29 19:17:00,79.2,54.1,29.79,West,270,1.0,2.0,42,0.00,,,0.00,meteohub,2013-05-30 02:17:00,
2013-05-29 19:22:00,79.0,54.0,29.79,East,90,1.0,3.0,42,0.00,,,0.00,meteohub,2013-05-30 02:22:00,
2013-05-29 19:27:00,78.6,53.6,29.79,South,180,2.0,3.0,42,0.00,,,0.00,meteohub,2013-05-30 02:27:00,
2013-05-29 19:32:00,78.4,53.4,29.79,South,180,1.0,3.0,42,0.00,,,0.00,meteohub,2013-05-30 02:32:00,
2013-05-29 19:37:00,78.3,53.2,29.79,NW,315,1.0,2.0,42,0.00,,,0.00,meteohub,2013-05-30 02:37:00,
2013-05-29 19:42:00,77.9,52.9,29.80,West,270,1.0,2.0,42,0.00,,,0.00,meteohub,2013-05-30 02:42:00,
2013-05-29 19:47:00,77.5,52.7,29.80,SW,225,1.0,2.0,42,0.00,,,0.00,meteohub,2013-05-30 02:47:00,
2013-05-29 19:52:00,77.4,52.5,29.80,SW,225,0.0,2.0,42,0.00,,,0.00,meteohub,2013-05-30 02:52:00,
2013-05-29 19:57:00,77.0,52.2,29.80,SW,225,2.0,2.0,42,0.00,,,0.00,meteohub,2013-05-30 02:57:00,
2013-05-29 20:02:00,76.3,51.4,29.80,SW,225,1.0,2.0,42,0.00,,,0.00,meteohub,2013-05-30 03:02:00,
2013-05-29 20:07:00,75.9,51.8,29.81,SW,225,2.0,2.0,43,0.00,,,0.00,meteohub,2013-05-30 03:07:00,
2013-05-29 20:12:00,75.2,51.8,29.80,North,0,1.0,2.0,44,0.00,,,0.00,meteohub,2013-05-30 03:12:00,
2013-05-29 20:17:00,74.1,51.4,29.80,West,270,0.0,2.0,45,0.00,,,0.00,meteohub,2013-05-30 03:17:00,
2013-05-29 20:22:00,73.4,51.4,29.80,SW,225,0.0,2.0,46,0.00,,,0.00,meteohub,2013-05-30 03:22:00,
2013-05-29 20:27:00,72.7,51.3,29.80,South,180,2.0,2.0,47,0.00,,,0.00,meteohub,2013-05-30 03:27:00,
2013-05-29 20:32:00,72.3,50.9,29.81,SW,225,0.0,2.0,47,0.00,,,0.00,meteohub,2013-05-30 03:32:00,
2013-05-29 20:37:00,72.3,50.9,29.81,SW,225,0.0,2.0,47,0.00,,,0.00,meteohub,2013-05-30 03:37:00,
2013-05-29 20:42:00,70.9,50.7,29.81,South,180,0.0,2.0,49,0.00,,,0.00,meteohub,2013-05-30 03:42:00,
2013-05-29 20:47:00,70.2,50.7,29.81,NE,45,1.0,2.0,50,0.00,,,0.00,meteohub,2013-05-30 03:47:00,
2013-05-29 20:52:00,69.8,50.9,29.81,East,90,0.0,2.0,51,0.00,,,0.00,meteohub,2013-05-30 03:52:00,
2013-05-29 20:57:00,69.1,50.7,29.81,NE,45,1.0,2.0,52,0.00,,,0.00,meteohub,2013-05-30 03:57:00,
2013-05-29 21:01:00,68.7,50.9,29.81,NE,45,1.0,2.0,53,0.00,,,0.00,meteohub,2013-05-30 04:01:00,
2013-05-29 21:02:00,68.7,50.9,29.81,NE,45,1.0,2.0,53,0.00,,,0.00,meteohub,2013-05-30 04:02:00,
2013-05-29 21:04:00,68.7,50.9,29.81,NE,45,1.0,2.0,53,0.00,,,0.00,meteohub,2013-05-30 04:04:00,
2013-05-29 21:06:00,68.7,50.9,29.81,NE,45,1.0,2.0,53,0.00,,,0.00,meteohub,2013-05-30 04:06:00,
2013-05-29 21:11:00,67.8,50.5,29.81,West,270,1.0,2.0,54,0.00,,,0.00,meteohub,2013-05-30 04:11:00,
2013-05-29 21:16:00,67.3,50.5,29.81,North,0,1.0,1.0,55,0.00,,,0.00,meteohub,2013-05-30 04:16:00,
2013-05-29 21:22:00,66.9,50.7,29.81,East,90,1.0,2.0,56,0.00,,,0.00,meteohub,2013-05-30 04:22:00,
2013-05-29 21:27:00,66.4,50.2,29.82,North,0,1.0,2.0,56,0.00,,,0.00,meteohub,2013-05-30 04:27:00,
2013-05-29 21:32:00,66.2,50.0,29.82,North,0,0.0,2.0,56,0.00,,,0.00,meteohub,2013-05-30 04:32:00,
2013-05-29 21:37:00,65.8,50.2,29.82,SW,225,1.0,2.0,57,0.00,,,0.00,meteohub,2013-05-30 04:37:00,
2013-05-29 21:42:00,65.3,50.2,29.82,South,180,1.0,2.0,58,0.00,,,0.00,meteohub,2013-05-30 04:42:00,
2013-05-29 21:47:00,64.9,49.8,29.82,South,180,0.0,2.0,58,0.00,,,0.00,meteohub,2013-05-30 04:47:00,
2013-05-29 21:52:00,64.6,50.0,29.83,South,180,1.0,2.0,59,0.00,,,0.00,meteohub,2013-05-30 04:52:00,
2013-05-29 21:57:00,64.4,49.8,29.83,SW,225,1.0,2.0,59,0.00,,,0.00,meteohub,2013-05-30 04:57:00,
2013-05-29 22:02:00,64.2,50.0,29.83,NE,45,1.0,2.0,60,0.00,,,0.00,meteohub,2013-05-30 05:02:00,
2013-05-29 22:07:00,64.2,50.0,29.83,NE,45,1.0,2.0,60,0.00,,,0.00,meteohub,2013-05-30 05:07:00,
2013-05-29 22:12:00,63.5,49.8,29.83,SW,225,0.0,2.0,61,0.00,,,0.00,meteohub,2013-05-30 05:12:00,
2013-05-29 22:17:00,63.1,49.8,29.83,NW,315,0.0,1.0,62,0.00,,,0.00,meteohub,2013-05-30 05:17:00,
2013-05-29 22:22:00,63.0,49.8,29.83,SW,225,0.0,1.0,62,0.00,,,0.00,meteohub,2013-05-30 05:22:00,
2013-05-29 22:27:00,62.6,49.8,29.83,West,270,0.0,0.0,63,0.00,,,0.00,meteohub,2013-05-30 05:27:00,
2013-05-29 22:32:00,62.4,49.6,29.83,NW,315,0.0,0.0,63,0.00,,,0.00,meteohub,2013-05-30 05:32:00,
2013-05-29 22:37:00,62.2,50.0,29.83,North,0,0.0,0.0,64,0.00,,,0.00,meteohub,2013-05-30 05:37:00,
2013-05-29 22:42:00,61.9,49.6,29.83,North,0,0.0,0.0,64,0.00,,,0.00,meteohub,2013-05-30 05:42:00,
2013-05-29 22:47:00,61.5,49.6,29.84,SE,135,0.0,0.0,65,0.00,,,0.00,meteohub,2013-05-30 05:47:00,
2013-05-29 22:52:00,61.3,49.5,29.84,South,180,0.0,0.0,65,0.00,,,0.00,meteohub,2013-05-30 05:52:00,
2013-05-29 22:57:00,61.2,49.6,29.84,South,180,0.0,0.0,66,0.00,,,0.00,meteohub,2013-05-30 05:57:00,
2013-05-29 23:02:00,61.0,49.5,29.84,West,270,0.0,0.0,66,0.00,,,0.00,meteohub,2013-05-30 06:02:00,
2013-05-29 23:07:00,61.0,49.5,29.84,West,270,0.0,0.0,66,0.00,,,0.00,meteohub,2013-05-30 06:07:00,
2013-05-29 23:12:00,60.4,49.5,29.83,South,180,0.0,0.0,67,0.00,,,0.00,meteohub,2013-05-30 06:12:00,
2013-05-29 23:17:00,60.3,49.3,29.84,SW,225,0.0,0.0,67,0.00,,,0.00,meteohub,2013-05-30 06:17:00,
2013-05-29 23:22:00,60.1,49.1,29.84,SW,225,0.0,0.0,67,0.00,,,0.00,meteohub,2013-05-30 06:22:00,
2013-05-29 23:27:00,59.9,49.3,29.84,SW,225,0.0,0.0,68,0.00,,,0.00,meteohub,2013-05-30 06:27:00,
2013-05-29 23:32:00,59.7,49.1,29.84,South,180,0.0,0.0,68,0.00,,,0.00,meteohub,2013-05-30 06:32:00,
2013-05-29 23:37:00,59.5,49.3,29.84,SW,225,2.0,0.0,69,0.00,,,0.00,meteohub,2013-05-30 06:37:00,
2013-05-29 23:42:00,59.4,49.1,29.84,West,270,2.0,2.0,69,0.00,,,0.00,meteohub,2013-05-30 06:42:00,
2013-05-29 23:47:00,59.4,49.1,29.84,NW,315,2.0,2.0,69,0.00,,,0.00,meteohub,2013-05-30 06:47:00,
2013-05-29 23:52:00,59.4,49.6,29.84,West,270,1.0,2.0,70,0.00,,,0.00,meteohub,2013-05-30 06:52:00,
2013-05-29 23:57:00,59.2,49.5,29.84,West,270,2.0,2.0,70,0.00,,,0.00,meteohub,2013-05-30 06:57:00,